Regional Weather Roundup
Issued by NWS

Home | Current Version | Previous Version | Graphics & Text | Print | Product List | Glossary Off
Versions: 1 2 3 4 5 6 7 8 9 10 11 12 13 14 15 16 17 18 19 20 21 22 23 24 25 26 27 28 29 30 31 32 33 34 35 36 37 38 39 40 41 42 43 44 45 46 47 48 49 50

000
ASUS43 KTOP 172108
RWRKS

WEATHER ROUNDUP FOR KANSAS
NATIONAL WEATHER SERVICE GOODLAND KS
300 PM CST WED JAN 17 2018

NOTE:  "FAIR" INDICATES FEW OR NO CLOUDS BELOW 12,000 FEET WITH NO
SIGNIFICANT WEATHER AND/OR OBSTRUCTIONS TO VISIBILITY.

KSZ001>006-013>018-027>032-041>047-172200-
NORTHWEST KANSAS

CITY           SKY/WX    TMP DP  RH WIND       PRES   REMARKS
GOODLAND       SUNNY     48   7  18 VRB5      30.25S
HAYS           SUNNY     38  12  34 S13       30.35F WCI  30
HILL CITY      SUNNY     37  14  38 S12       30.33F WCI  29
RUSSELL        SUNNY     34  19  54 S14       30.37F WCI  25
$$

KSZ061>065-074>080-084>089-172200-
SOUTHWEST KANSAS

CITY           SKY/WX    TMP DP  RH WIND       PRES   REMARKS
DODGE CITY     SUNNY     40   6  24 S16       30.34F WCI  31
ELKHART        SUNNY     54  22  29 SW9       30.26S
GARDEN CITY    SUNNY     44   9  23 S13G22    30.30F
GREAT BEND     SUNNY     38  12  34 S15       30.38F WCI  29
LIBERAL        SUNNY     49  11  21 SW18      30.31S
PRATT          SUNNY     35   0  22 S15       30.40F WCI  26
$$

KSZ066>073-081>083-090>101-172200-
SOUTHEAST KANSAS

CITY           SKY/WX    TMP DP  RH WIND       PRES   REMARKS
CHANUTE        SUNNY     22  12  65 S10       30.57F WCI  11
COFFEYVILLE    SUNNY     24  15  68 S7        30.61F
HUTCHINSON     SUNNY     33   9  36 S16       30.45F WCI  23
MEDICINE LODGE   N/A     36   2  23 S14       30.44F WCI  27
NEWTON         SUNNY     29  14  53 S14       30.48F WCI  18
PARSONS        SUNNY     21  13  71 S7        30.59F
WICHITA INTL   SUNNY     33   7  33 S15       30.48F WCI  23
WICHITA JABRA  SUNNY     29  12  49 S13       30.49F WCI  19
WICHITA MCCONL SUNNY     31   8  37 SW12G22   30.49F WCI  22
WINFIELD       SUNNY     31   6  35 S9        30.54F
$$

KSZ007>012-019>026-033>040-048>060-102>105-172200-
NORTHEAST KANSAS

CITY           SKY/WX    TMP DP  RH WIND       PRES   REMARKS
CONCORDIA      SUNNY     30  14  51 S14       30.40F WCI  19
EMPORIA        SUNNY     26  15  63 S16       30.51F WCI  14
LAWRENCE       SUNNY     25  12  58 S10       30.54F WCI  15
MANHATTAN      SUNNY     29  13  51 SW16      30.48F WCI  17
MARYSVILLE     SUNNY     27  10  50 SW12      30.44F WCI  16
OLATHE IND     SUNNY     22  10  60 S13       30.54F WCI  10
OLATHE EXE     SUNNY     22  11  62 SW9       30.53F
SALINA         SUNNY     30  16  56 S12       30.46F WCI  20
TOPEKA BILLARD SUNNY     26  12  55 S8        30.52F
TOPEKA FORBES  SUNNY     26  13  57 S15       30.50F WCI  14
$$



USA.gov is the U.S. government's official web portal to all federal, state and local government web resources and services.